This demonstration page uses our WeatherBlox Daily Observations layout. Learn more.

Left ArrowRight Arrow

30.00354, -91.81873

Hourly Observations for September 22, 2022

Temp ( °F °C ) Dew Point ( °F °C ) Humidity (%) Winds ( mph kmh ) Pressure ( in mb ) Visibility ( mi km ) Precip ( " mm )
12:53 am 00:53 Clear 76 24.4 73 22.8 91 91 Calm 29.94 1014 9 14 0.00 0.00
1:53 am 01:53 Clear 77 25 73 22.8 88 88 Calm 29.93 1014 8 13 0.00 0.00
2:53 am 02:53 Clear 75 23.9 72 22.2 90 90 Calm 29.92 1013 7 11 0.00 0.00
3:53 am 03:53 Clear 76 24.4 72 22.2 88 88 Calm 29.92 1013 10 16 0.00 0.00
4:53 am 04:53 Clear 74 23.3 70 21.1 87 87 Calm 29.93 1014 9 14 0.00 0.00
5:53 am 05:53 Clear 73 22.8 70 21.1 90 90 NNW 3 6 29.94 1014 7 11 0.00 0.00
6:53 am 06:53 Clear 73 22.8 70 21.1 90 90 NNW 3 6 29.96 1015 9 14 0.00 0.00
7:53 am 07:53 Sunny 77 25 71 21.7 82 82 N 3 6 29.97 1015 10 16 0.00 0.00
8:53 am 08:53 Sunny 82 27.8 72 22.2 72 72 N 6 9 29.98 1015 10 16 0.00 0.00
9:53 am 09:53 Sunny 87 30.6 73 22.8 63 63 NE 7 11 29.98 1015 10 16 0.00 0.00
10:53 am 10:53 Sunny 90 32.2 71 21.7 54 54 NE 8 13 29.98 1015 10 16 0.00 0.00
11:53 am 11:53 Sunny 93 33.9 70 21.1 47 47 N 7 11 29.97 1015 10 16 0.00 0.00
12:53 pm 12:53 Partly Cloudy 94 34.4 69 20.6 45 45 NNE 12 19 29.95 1014 10 16 0.00 0.00
1:53 pm 13:53 Mostly Sunny 97 36.1 68 20 39 39 NE 10 17 29.93 1014 10 16 0.00 0.00
2:53 pm 14:53 Mostly Sunny 96 35.6 67 19.4 39 39 NNE 14 22 29.91 1013 10 16 0.00 0.00
3:53 pm 15:53 Partly Cloudy 96 35.6 69 20.6 42 42 NNE 12 19 29.89 1012 10 16 0.00 0.00
4:53 pm 16:53 Mostly Sunny 95 35 68 20 42 42 ENE 6 9 29.88 1012 10 16 0.00 0.00
5:53 pm 17:53 Mostly Sunny 93 33.9 69 20.6 46 46 NE 9 15 29.88 1012 10 16 0.00 0.00
6:53 pm 18:53 Sunny 88 31.1 71 21.7 57 57 NNE 5 7 29.89 1012 10 16 0.00 0.00
7:53 pm 19:53 Clear 83 28.3 74 23.3 74 74 NNW 3 6 29.90 1012 10 16 0.00 0.00
8:53 pm 20:53 Mostly Cloudy 81 27.2 74 23.3 79 79 WNW 5 7 29.92 1013 10 16 0.00 0.00
9:53 pm 21:53 Clear 80 26.7 73 22.8 79 79 SSW 5 7 29.94 1014 10 16 0.00 0.00
10:53 pm 22:53 Clear 80 26.7 74 23.3 82 82 SW 6 9 29.94 1014 10 16 0.00 0.00
11:53 pm 23:53 Clear 79 26.1 74 23.3 85 85 W 3 6 29.95 1014 8 13 0.00 0.00

Powered by AerisWeather